EW9743 Weather Reports


time (UTC)temp
C
wind
direction
speed
KPH
gust
KPH
rain 1hr
cm
rain 24hr
cm
rain mn
cm
humidity
%
barometer
mb
20260504044507 4 119 0.0 0.0 0.00 0.00 0.00 80 1014.8
20260504043006 3 119 0.0 0.0 0.00 0.00 0.00 81 1014.8
20260504041500 3 119 0.0 0.0 0.00 0.00 0.00 80 1014.9
20260504040058 3 119 0.0 0.0 0.00 0.00 0.00 79 1014.7
20260504034557 4 119 0.0 0.0 0.00 0.00 0.00 79 1014.8
20260504033102 4 119 0.0 0.0 0.00 0.00 0.00 79 1014.8
20260504031555 4 119 0.0 0.0 0.00 0.00 0.00 77 1014.9
20260504030053 5 119 0.0 0.0 0.00 0.00 0.00 75 1014.9
20260504024554 6 119 0.0 0.0 0.00 0.00 0.00 75 1014.7
20260504023052 5 119 0.0 0.0 0.00 0.00 0.00 74 1014.6
20260504021549 5 119 0.0 0.0 0.00 0.00 0.00 71 1014.5
20260504020126 6 119 0.0 0.0 0.00 0.00 0.00 68 1014.5
20260504014559 6 119 0.0 0.0 0.00 0.00 0.00 66 1014.4
20260504013058 6 118 0.0 0.0 0.00 0.00 0.00 63 1014.3
20260504011546 7 119 0.0 0.0 0.00 0.00 0.00 61 1014.2
20260504010045 7 119 0.0 0.0 0.00 0.00 0.00 60 1014.2
20260504004610 8 119 0.0 0.0 0.00 0.00 0.00 55 1014.2
20260504003048 10 119 0.0 0.0 0.00 0.00 0.00 52 1014.2
20260504001605 11 119 0.0 0.0 0.00 0.00 0.00 49 1014.0
20260504000041 12 119 0.0 0.0 0.00 0.00 0.00 47 1013.9
20260503234538 13 119 0.0 0.0 0.00 0.00 0.00 46 1013.7
20260503233041 13 119 0.0 3.2 0.00 0.00 0.00 45 1013.8
20260503231534 14 119 0.0 4.8 0.00 0.00 0.00 44 1013.6
20260503230033 14 119 0.0 0.0 0.00 0.00 0.00 43 1013.5
20260503224532 15 119 0.0 1.6 0.00 0.00 0.00 43 1013.4
20260503223031 15 119 0.0 0.0 0.00 0.00 0.00 40 1013.4
20260503221526 15 119 0.0 3.2 0.00 0.00 0.00 41 1013.6
20260503220031 15 119 0.0 0.0 0.00 0.00 0.00 42 1013.7
20260503214524 15 119 0.0 9.7 0.00 0.00 0.00 43 1013.8
20260503213022 16 119 0.0 0.0 0.00 0.00 0.00 39 1013.6
20260503211518 16 119 0.0 0.0 0.00 0.00 0.00 39 1013.7
20260503210017 17 117 0.0 0.0 0.00 0.00 0.00 43 1013.5
20260503204515 16 118 0.0 0.0 0.00 0.00 0.00 39 1013.6
20260503203035 16 118 0.0 1.6 0.00 0.00 0.00 42 1013.6
20260503201510 16 118 0.0 0.0 0.00 0.00 0.00 40 1013.9
20260503200010 16 118 0.0 0.0 0.00 0.00 0.00 37 1014.0
20260503194507 17 118 0.0 0.0 0.00 0.00 0.00 36 1014.2
20260503193005 17 118 0.0 3.2 0.00 0.00 0.00 38 1014.3
20260503191501 17 118 0.0 6.4 0.00 0.00 0.00 41 1014.6
20260503190110 16 118 0.0 0.0 0.00 0.00 0.00 39 1014.6
20260503184604 17 117 0.0 0.0 0.00 0.00 0.00 41 1014.7
20260503183101 16 117 0.0 4.8 0.00 0.00 0.00 39 1014.8
20260503181559 16 117 0.0 0.0 0.00 0.00 0.00 41 1014.9
20260503180054 16 117 0.0 0.0 0.00 0.00 0.00 40 1015.3
20260503174549 16 117 0.0 1.6 0.00 0.00 0.00 44 1015.3
20260503173048 15 117 0.0 1.6 0.00 0.00 0.00 41 1015.3
20260503171548 15 117 0.0 1.6 0.00 0.00 0.00 41 1015.6
20260503100105 0 103 0.0 0.0 0.00 0.00 0.00 86 1015.6
20260503081536 0 103 0.0 0.0 0.00 0.00 0.00 83 1014.9